Location: G�migny
(47.9646°N, 1.6950°E)
Time: 17:59:04
(UTC+00:00)

ARGOS - Pass Details

Date: 23 October 2019
Orbit: 820 x 835 km, 98.5° (Epoch: 14 November)

Event Time Altitude Azimuth Distance (km) Brightness Sun altitude
Exits shadow 20:09:22 43° 323° (NW) 1,156 4.1 -33.5°
Drops below altitude 10° 20:13:06 10° 341° (NNW) 2,458 6.0 -34.1°
Sets 20:15:29 0° 344° (NNW) 3,396 6.8 -34.4°
